Location: Newark
(44.3681°N, 100.3364°W)
Time: 14:33:34
(UTC+00:00)

deb Explorer IX - Pass Details

Date: 21 February 2020
Orbit: 547 x 1100 km, 38.8° (Epoch: 06 April)

Event Time Altitude Azimuth Distance (km) Brightness Sun altitude
Rises 19:38:06 0° 257° (WSW) 2,730 ? 34.2°
Reaches altitude 10° 19:40:27 10° 249° (WSW) 1,816 ? 34.1°
Maximum altitude 19:44:16 38° 181° (S) 838 ? 34.0°
Drops below altitude 10° 19:48:10 10° 112° (ESE) 1,855 ? 33.8°
Sets 19:50:36 0° 104° (ESE) 2,799 ? 33.7°
